TimePST,TemperatureF,Dew PointF,Humidity,Sea Level PressureIn,VisibilityMPH,Wind Direction,Wind SpeedMPH,Gust SpeedMPH,PrecipitationIn,Events,Conditions,WindDirDegrees,DateUTC
12:15 AM,50.0,42.8,76,30.02,10.0,SE,11.5,-,N/A,,Clear,140,2013-03-05 08:15:00
12:35 AM,50.0,41.0,71,30.02,10.0,SE,8.1,-,N/A,,Clear,130,2013-03-05 08:35:00
12:55 AM,50.0,41.0,71,30.01,10.0,SE,6.9,-,N/A,,Scattered Clouds,130,2013-03-05 08:55:00
1:15 AM,48.2,41.0,76,30.02,10.0,SE,6.9,-,N/A,,Clear,130,2013-03-05 09:15:00
1:35 AM,46.4,41.0,81,30.01,10.0,SE,9.2,-,N/A,,Clear,140,2013-03-05 09:35:00
1:55 AM,48.2,41.0,76,30.02,10.0,SSE,8.1,-,N/A,,Mostly Cloudy,150,2013-03-05 09:55:00
2:15 AM,46.4,39.2,76,30.01,10.0,SE,9.2,-,N/A,,Overcast,130,2013-03-05 10:15:00
2:35 AM,48.2,39.2,71,30.01,10.0,SE,9.2,-,N/A,,Overcast,140,2013-03-05 10:35:00
2:55 AM,48.2,39.2,71,30.01,10.0,SE,8.1,-,N/A,,Overcast,130,2013-03-05 10:55:00
3:15 AM,48.2,37.4,66,30.01,10.0,SE,9.2,-,N/A,,Overcast,140,2013-03-05 11:15:00
3:55 AM,46.4,37.4,71,30.00,10.0,SE,8.1,-,N/A,,Overcast,130,2013-03-05 11:55:00
4:15 AM,46.4,37.4,71,30.01,10.0,SE,8.1,-,N/A,,Overcast,140,2013-03-05 12:15:00
4:35 AM,46.4,39.2,76,30.00,10.0,SE,10.4,-,N/A,,Overcast,130,2013-03-05 12:35:00
5:15 AM,46.4,37.4,71,30.01,10.0,SE,8.1,-,N/A,,Overcast,130,2013-03-05 13:15:00
5:35 AM,46.4,37.4,71,30.00,10.0,SE,8.1,-,N/A,,Overcast,140,2013-03-05 13:35:00
5:55 AM,46.4,37.4,71,30.02,10.0,South,9.2,-,N/A,,Overcast,170,2013-03-05 13:55:00
6:15 AM,46.4,37.4,71,30.01,10.0,SE,13.8,18.4,N/A,,Overcast,140,2013-03-05 14:15:00
6:35 AM,44.6,35.6,71,30.01,10.0,SSE,10.4,-,N/A,,Mostly Cloudy,150,2013-03-05 14:35:00
6:55 AM,44.6,35.6,71,30.01,10.0,SE,12.7,-,N/A,,Scattered Clouds,140,2013-03-05 14:55:00
7:15 AM,46.4,35.6,66,30.02,10.0,SSE,11.5,-,N/A,,Mostly Cloudy,150,2013-03-05 15:15:00
7:35 AM,44.6,35.6,71,30.02,10.0,SSE,11.5,-,N/A,,Mostly Cloudy,150,2013-03-05 15:35:00
7:55 AM,46.4,37.4,71,30.02,10.0,SSE,13.8,-,N/A,,Overcast,150,2013-03-05 15:55:00
8:15 AM,46.4,37.4,71,30.02,10.0,SE,15.0,-,N/A,,Overcast,140,2013-03-05 16:15:00
8:35 AM,46.4,37.4,71,30.02,10.0,SSE,16.1,-,N/A,,Mostly Cloudy,150,2013-03-05 16:35:00
8:55 AM,50.0,35.6,58,30.02,10.0,SE,16.1,-,N/A,,Mostly Cloudy,140,2013-03-05 16:55:00
9:15 AM,51.8,35.6,54,30.01,10.0,SSE,15.0,-,N/A,,Mostly Cloudy,160,2013-03-05 17:15:00
9:35 AM,51.8,37.4,58,30.01,10.0,South,15.0,-,N/A,,Scattered Clouds,170,2013-03-05 17:35:00
9:55 AM,51.8,37.4,58,30.01,10.0,SSE,15.0,-,N/A,,Clear,150,2013-03-05 17:55:00
10:15 AM,53.6,37.4,54,30.00,10.0,South,12.7,-,N/A,,Clear,170,2013-03-05 18:15:00
10:35 AM,53.6,37.4,54,30.00,10.0,South,16.1,-,N/A,,Scattered Clouds,170,2013-03-05 18:35:00
10:55 AM,53.6,39.2,58,29.99,10.0,South,12.7,-,N/A,,Mostly Cloudy,180,2013-03-05 18:55:00
11:15 AM,55.4,37.4,51,29.99,10.0,South,13.8,18.4,N/A,,Scattered Clouds,190,2013-03-05 19:15:00
11:35 AM,57.2,37.4,48,29.98,10.0,South,12.7,-,N/A,,Mostly Cloudy,170,2013-03-05 19:35:00
11:55 AM,57.2,37.4,48,29.98,10.0,South,15.0,-,N/A,,Scattered Clouds,190,2013-03-05 19:55:00
12:15 PM,59.0,37.4,45,29.98,10.0,South,13.8,19.6,N/A,,Mostly Cloudy,180,2013-03-05 20:15:00
12:35 PM,59.0,39.2,48,29.97,10.0,SSW,11.5,-,N/A,,Overcast,200,2013-03-05 20:35:00
12:55 PM,60.8,37.4,42,29.96,10.0,SSW,12.7,16.1,N/A,,Mostly Cloudy,200,2013-03-05 20:55:00
1:15 PM,60.8,39.2,45,29.95,10.0,South,12.7,17.3,N/A,,Scattered Clouds,180,2013-03-05 21:15:00
1:35 PM,59.0,41.0,51,29.94,10.0,SW,12.7,-,N/A,,Scattered Clouds,220,2013-03-05 21:35:00
1:55 PM,59.0,41.0,51,29.93,10.0,SSW,15.0,19.6,N/A,,Scattered Clouds,200,2013-03-05 21:55:00
2:15 PM,59.0,39.2,48,29.93,10.0,SSW,15.0,-,N/A,,Scattered Clouds,200,2013-03-05 22:15:00
2:35 PM,59.0,41.0,51,29.93,10.0,SSW,16.1,19.6,N/A,,Clear,210,2013-03-05 22:35:00
2:55 PM,59.0,41.0,51,29.93,10.0,South,15.0,18.4,N/A,,Clear,190,2013-03-05 22:55:00
3:15 PM,59.0,41.0,51,29.92,10.0,SSW,12.7,-,N/A,,Clear,200,2013-03-05 23:15:00
3:35 PM,59.0,41.0,51,29.92,10.0,SSW,11.5,18.4,N/A,,Clear,210,2013-03-05 23:35:00
3:55 PM,59.0,41.0,51,29.92,10.0,SSW,8.1,11.5,N/A,,Clear,200,2013-03-05 23:55:00
4:15 PM,59.0,41.0,51,29.91,10.0,SSW,9.2,-,N/A,,Clear,200,2013-03-06 00:15:00
4:35 PM,57.2,39.2,51,29.91,10.0,SSW,13.8,-,N/A,,Clear,200,2013-03-06 00:35:00
4:55 PM,55.4,41.0,58,29.89,10.0,SSW,8.1,-,N/A,,Clear,200,2013-03-06 00:55:00
5:15 PM,55.4,41.0,58,29.88,10.0,South,8.1,-,N/A,,Clear,170,2013-03-06 01:15:00
5:35 PM,53.6,41.0,62,29.87,10.0,South,6.9,-,N/A,,Clear,180,2013-03-06 01:35:00
5:55 PM,51.8,41.0,67,29.87,10.0,South,4.6,-,N/A,,Clear,190,2013-03-06 01:55:00
6:15 PM,51.8,41.0,67,29.86,10.0,South,5.8,-,N/A,,Clear,180,2013-03-06 02:15:00
6:35 PM,50.0,41.0,71,29.86,10.0,SSW,6.9,-,N/A,,Clear,200,2013-03-06 02:35:00
6:55 PM,48.2,41.0,76,29.85,10.0,South,5.8,-,N/A,,Clear,190,2013-03-06 02:55:00
7:15 PM,50.0,41.0,71,29.86,10.0,SSW,5.8,-,N/A,,Clear,200,2013-03-06 03:15:00
7:35 PM,48.2,41.0,76,29.86,10.0,SSW,6.9,-,N/A,,Clear,210,2013-03-06 03:35:00
7:55 PM,50.0,41.0,71,29.86,10.0,SSW,6.9,-,N/A,,Clear,210,2013-03-06 03:55:00
8:15 PM,50.0,41.0,71,29.86,10.0,SSW,5.8,-,N/A,,Clear,200,2013-03-06 04:15:00
8:35 PM,50.0,41.0,71,29.86,10.0,South,3.5,-,N/A,,Clear,190,2013-03-06 04:35:00
8:55 PM,50.0,41.0,71,29.86,10.0,SSE,6.9,-,N/A,,Clear,160,2013-03-06 04:55:00
9:15 PM,50.0,41.0,71,29.86,10.0,SSW,6.9,-,N/A,,Clear,200,2013-03-06 05:15:00
9:35 PM,50.0,41.0,71,29.86,10.0,South,3.5,-,N/A,,Scattered Clouds,170,2013-03-06 05:35:00
9:55 PM,50.0,41.0,71,29.85,10.0,SE,3.5,-,N/A,,Scattered Clouds,130,2013-03-06 05:55:00
10:15 PM,50.0,41.0,71,29.84,10.0,SE,5.8,-,N/A,,Scattered Clouds,140,2013-03-06 06:15:00
10:35 PM,48.2,42.8,82,29.84,10.0,ESE,4.6,-,N/A,,Mostly Cloudy,120,2013-03-06 06:35:00
10:55 PM,50.0,42.8,76,29.85,10.0,Calm,Calm,-,N/A,,Overcast,0,2013-03-06 06:55:00
11:15 PM,50.0,42.8,76,29.85,10.0,South,3.5,-,N/A,,Overcast,170,2013-03-06 07:15:00
11:35 PM,50.0,42.8,76,29.85,7.0,South,13.8,20.7,N/A,,Overcast,180,2013-03-06 07:35:00
11:55 PM,48.2,42.8,82,29.83,7.0,SE,15.0,25.3,N/A,,Overcast,140,2013-03-06 07:55:00